This is the latest recevied weather packets stored in our database for station/object N6HGA-1. If no packets are shown the sender has not sent any weather packets the latest 10 day(s).
| Time | Temp. | Humidity | Pressure | Rain* | Wind** | Luminosity | Snow |
|---|---|---|---|---|---|---|---|
| 1777413823 | 21.11° C | 35% | - | 0 mm | - | - | - |
| 1777413525 | 21.67° C | 35% | - | 0 mm | - | - | - |
| 1777413223 | 21.67° C | 34% | - | 0 mm | - | - | - |
| 1777412020 | 21.11° C | 36% | - | 0 mm | - | - | - |
| 1777411719 | 20.56° C | 38% | - | 0 mm | - | - | - |
| 1777411419 | 20.56° C | 40% | - | 0 mm | - | - | - |
| 1777411119 | 20° C | 38% | - | 0 mm | - | - | - |
| 1777410819 | 20° C | 38% | - | 0 mm | - | - | - |
| 1777410518 | 20° C | 39% | - | 0 mm | - | - | - |
| 1777410218 | 20° C | 40% | - | 0 mm | - | - | - |
| 1777409917 | 20° C | 40% | - | 0 mm | - | - | - |
| 1777409617 | 20° C | 39% | - | 0 mm | - | - | - |
| 1777409315 | 19.44° C | 42% | - | 0 mm | - | - | - |
| 1777409015 | 19.44° C | 42% | - | 0 mm | - | - | - |
| 1777408715 | 19.44° C | 41% | - | 0 mm | - | - | - |
| 1777408414 | 20° C | 40% | - | 0 mm | - | - | - |
| 1777408114 | 20.56° C | 39% | - | 0 mm | - | - | - |
| 1777407814 | 20.56° C | 39% | - | 0 mm | - | - | - |
| 1777407213 | 19.44° C | 41% | - | 0 mm | - | - | - |
| 1777406913 | 18.89° C | 42% | - | 0 mm | - | - | - |
| 1777406613 | 18.33° C | 60% | - | 0 mm | - | - | - |
| 1777406312 | 18.33° C | 60% | - | 0 mm | - | - | - |
| 1777406010 | 18.33° C | 61% | - | 0 mm | - | - | - |
| 1777405710 | 18.33° C | 61% | - | 0 mm | - | - | - |
| 1777405409 | 18.33° C | 61% | - | 0 mm | - | - | - |
* Rain since midnight (hover to see other rain measurements)
** Current wind speed in m/s (hover to see current wind gust speed)